SL-8 DEB

Satellite information

Favourite Embed

Satellite Type and Status

DEBRISIN ORBIT

Key statistics

Satellite SL-8 DEB at a glance.

Uptime

13064

Days in orbit

Revolutions

≈ 14.6

Per day

Orbit

LEO

Low Earth Orbit

Inclination

74.0

Latest

Satellite identification and parameters

Extended collection of information and parameters for SL-8 DEB.

Object identification

Identified? True

Debris? True

Object name: SL-8 DEB

International designator: 1990-004D

Object number (NORAD): 20435

Object ID (CCSDS): 20435

Country: COMMONWEALTH OF INDEPENDENT STATES (CIS)

Current information (Y/N): Y

RCS size: SMALL

Orbital parameters

Period: 98.385 minutes

Inclination: 74.0267 deg

SMA: 7059.574 km

Apoapsis: 689.676 km

Periapsis: 673.201 km

RAAN: 40.923 deg

Eccentricy: 0.00116687

Argument of periapsis: 97.8533 deg

Mean anomaly: 25.1941 deg

Mean motion: 14.63642673 rev/day

Mean motion (dot): 0.00003782 rev/day2

B* drag term: 0.00073212402 1/REarth

Two-line elements (TLE)

Creation date: Oct. 25, 2025, 3:11 a.m.

Reference frame: TEME

Reference center: EARTH

Epoch: Oct. 24, 2025, 5:13 p.m. UTC

TLE line 0: 0 SL-8 DEB

TLE line 1: 1 20435U 90004D 25297.71747856 .00003782 00000-0 73212-3 0 9995

TLE line 2: 2 20435 74.0267 40.9230 0011669 97.8533 25.1941 14.63642673887959

Live tracking on map

Real-time ground track for satellite SL-8 DEB.

In-orbit conjunctions

A list of the most updated potential collisions computed for object SL-8 DEB.

Target Orbit TCA Probability of collision Miss distance Type
CZ-4C R/B SSO 2025-06-08 00:56:58 0.000141205 100.0 (m) ROCKET BODY
MAST SSO 2025-02-05 15:28:25 0.0002429329 450.0 (m) PAYLOAD
SAC C SSO 2024-09-25 20:17:21 0.0007465795 597.0 (m) PAYLOAD

Associated space launch

Military communications satellite

SL-8 DEB was lifted into orbit during the mission ‘Kosmos-3M | Strela-2M 47’, on board a Kosmos-3M space rocket.

The launch took place on Jan. 18, 1990, 12:52 p.m. from 133/3 (133L).

For more information about the launch, click the button.

Launch to space Kosmos-3M | Strela-2M 47
Kosmos-3M | Strela-2M 47

Agency: N/A

Status: Launch Successful

Launch date: Jan. 18, 1990, 12:52 p.m. UTC

Rocket: Kosmos-3M

Launch pad: 133/3 (133L)

Location: Plesetsk Cosmodrome, Russian Federation

...

Latest news about this satellite

There are no fresh news available about this satellite. Check back as we update our databases every day.


Newsletter sign-up

Weekly statistics, charts and insights to help you stay on top of the space industry.